Find Iridium Next SV121

NORAD ID: 42812 Int'l Des: 2017-039 Owner: IRIDS Country: US Constellation: Iridium NEXT operational
LEOCIRCULARPOLAR

現在のビュー

3D地球を読み込み中...

About Iridium Next SV121

Iridium Next SV121 (NORAD 42812) is a Iridium NEXT constellation satellite launched Jun 25, 2017 by IRIDS of US. It operates in LEO, CIRCULAR, POLAR orbit with a mass of 860.00 kg.

Iridium Next SV121について

説明を読み込み中...

次回通過

Passes for default location (London). Set your location on the main map for personalized predictions.

高度履歴

Loading altitude history...

軌道要素

1 42812U 17039K 26194.88901573 -.00000010 00000-0 -10735-4 0 9993
2 42812 86.3987 342.5101 0002150 93.4922 266.6520 14.34217245473658
Epoch: Jul 13, 2026 • Age: 11 hours

現在のステータス

高度 780.2 km
遠地点 / 近地点 N/A
速度 7.46 km/s
衛星直下点 3.58°N, 106.85°E
打ち上げ日 Jun 25, 2017
運用期間 9 years
タイプ communications

技術仕様

分類 Payload
質量 860.00 kg
乾燥質量 700.00 kg
総質量 860.00 kg
長さ 3.10 m
直径 1.50 m
スパン 9.40 m
形状 Half Hex Prism+2 pan
製造者 OATKGA
バスタイプ EliteBus
フェーズステータス In Orbit
所有者/国 IRIDS/US

Most Searched